GALAXY 23 (G-23)

Last updated on Fri Oct 11 2024 00:02:38 GMT+0000 (Coordinated Universal Time)

1 27854U 03034A 24284.40259984 .00000018 00000+0 00000+0 0 9994 2 27854 1.6010 87.4325 0002988 127.4961 188.6301 1.00272203 77572
UTC large
Height (km)
Speed (km/s)
/
Latitude / Longitude
Inclination (degrees)
Orbital Period (minutes)
Azimuth
Elevation
Range (km)
Doppler Factor

Next 0 passes for location: London (51.5072 / 0.1276)

Sorry there are no passes over London.